TimeCST,TemperatureF,Dew PointF,Humidity,Sea Level PressureIn,VisibilityMPH,Wind Direction,Wind SpeedMPH,Gust SpeedMPH,PrecipitationIn,Events,Conditions,WindDirDegrees,DateUTC
12:15 AM,32.0,-9999,N/A,29.76,1.0,NE,4.6,-,0.03,Rain,Rain,50,2013-12-21 06:15:00
12:35 AM,32.0,-9999,N/A,29.75,1.0,North,6.9,-,0.17,Rain,Rain,10,2013-12-21 06:35:00
12:55 AM,32.0,-9999,N/A,29.74,1.5,NNW,10.4,-,0.26,Rain,Rain,340,2013-12-21 06:55:00
1:15 AM,32.0,-9999,N/A,29.76,1.2,NNW,11.5,16.1,0.12,Rain,Rain,330,2013-12-21 07:15:00
1:35 AM,32.0,-9999,N/A,29.77,1.2,NNW,9.2,16.1,0.29,Rain,Heavy Rain,330,2013-12-21 07:35:00
1:55 AM,32.0,-9999,N/A,29.79,2.0,NW,6.9,-,0.52,Rain-Thunderstorm,Thunderstorms and Rain,310,2013-12-21 07:55:00
2:15 AM,32.0,-9999,N/A,29.77,2.5,Calm,Calm,-,0.06,Rain,Rain,0,2013-12-21 08:15:00
2:35 AM,32.0,-9999,N/A,29.74,-9999.0,ENE,3.5,-,0.11,Rain-Thunderstorm,Thunderstorms and Rain,70,2013-12-21 08:35:00
2:55 AM,32.0,-9999,N/A,29.74,3.0,ENE,3.5,-,0.14,Rain,Rain,70,2013-12-21 08:55:00
3:15 AM,32.0,-9999,N/A,29.74,3.0,Calm,Calm,-,0.03,Rain,Light Rain,0,2013-12-21 09:15:00
3:35 AM,32.0,-9999,N/A,29.73,2.5,Calm,Calm,-,0.09,Rain,Light Rain,0,2013-12-21 09:35:00
3:55 AM,32.0,-9999,N/A,29.74,5.0,Calm,Calm,-,0.10,Rain,Light Rain,0,2013-12-21 09:55:00
4:15 AM,32.0,-9999,N/A,29.73,6.0,NW,5.8,-,0.01,Rain,Light Rain,320,2013-12-21 10:15:00
4:35 AM,33.8,-9999,N/A,29.72,2.5,Calm,Calm,-,0.04,Rain,Light Rain,0,2013-12-21 10:35:00
4:55 AM,33.8,-9999,N/A,29.73,9.0,Calm,Calm,-,0.06,Rain,Light Rain,0,2013-12-21 10:55:00
5:15 AM,33.8,-9999,N/A,29.74,2.5,West,3.5,-,0.05,Rain,Rain,260,2013-12-21 11:15:00
5:35 AM,33.8,-9999,N/A,29.78,3.0,West,5.8,-,0.11,Rain,Rain,270,2013-12-21 11:35:00
5:55 AM,33.8,-9999,N/A,29.71,2.5,North,10.4,-,0.26,Rain,Heavy Rain,350,2013-12-21 11:55:00
6:15 AM,33.8,-9999,N/A,29.75,9.0,Calm,Calm,-,N/A,Rain,Light Rain,0,2013-12-21 12:15:00
6:35 AM,33.8,-9999,N/A,29.75,-9999.0,NW,5.8,-,0.05,Rain,Light Rain,320,2013-12-21 12:35:00
6:45 AM,32.0,32.0,100,29.76,4.0,NW,8.1,-,N/A,,Overcast,320,2013-12-21 12:45:00
7:45 AM,32.0,32.0,100,29.75,3.0,NNW,4.6,-,N/A,Rain,Light Rain,330,2013-12-21 13:45:00
8:45 AM,32.0,32.0,100,29.70,3.0,NE,6.9,-,N/A,Rain,Light Rain,40,2013-12-21 14:45:00
9:50 AM,33.8,33.8,100,29.77,3.0,Calm,Calm,-,N/A,Rain,Light Rain,0,2013-12-21 15:50:00
10:45 AM,33.8,33.8,100,29.73,3.0,North,-9999.0,-,N/A,Rain,Light Rain,0,2013-12-21 16:45:00
11:20 AM,35.6,35.6,100,29.71,2.0,NNW,4.6,-,N/A,Rain,Light Rain,330,2013-12-21 17:20:00
11:45 AM,35.6,33.8,93,29.69,0.5,Calm,Calm,-,N/A,Fog,Fog,0,2013-12-21 17:45:00
12:35 PM,35.6,35.6,100,29.65,2.0,Calm,Calm,-,N/A,Rain,Light Rain,0,2013-12-21 18:35:00
12:50 PM,35.6,35.6,100,29.65,1.8,Calm,Calm,-,N/A,Rain,Rain,0,2013-12-21 18:50:00
1:45 PM,35.6,35.6,100,29.59,1.5,North,5.8,-,N/A,Rain,Light Rain,350,2013-12-21 19:45:00
2:45 PM,37.4,35.6,93,29.56,2.0,NE,4.6,-,N/A,Rain,Light Rain,40,2013-12-21 20:45:00
3:45 PM,35.6,35.6,100,29.61,2.0,Calm,Calm,-,N/A,Rain,Light Rain,0,2013-12-21 21:45:00
4:45 PM,35.6,35.6,100,29.61,1.5,Calm,Calm,-,N/A,Rain,Light Rain,0,2013-12-21 22:45:00
5:45 PM,35.6,35.6,100,29.57,1.0,Calm,Calm,-,N/A,Rain,Light Rain,0,2013-12-21 23:45:00
6:45 PM,35.6,35.6,100,29.49,0.1,Calm,Calm,-,N/A,Fog,Fog,0,2013-12-22 00:45:00
7:45 PM,37.4,35.6,93,29.57,0.1,Calm,Calm,-,N/A,Fog,Fog,0,2013-12-22 01:45:00
8:45 PM,37.4,35.6,93,29.61,0.2,Calm,Calm,-,N/A,Fog,Fog,0,2013-12-22 02:45:00
9:15 PM,37.4,-9999,N/A,29.63,0.2,Calm,Calm,-,N/A,Fog,Fog,0,2013-12-22 03:15:00
9:35 PM,37.4,-9999,N/A,29.67,0.2,Calm,Calm,-,N/A,Rain,Light Rain,0,2013-12-22 03:35:00
9:55 PM,37.4,-9999,N/A,29.67,1.8,Calm,Calm,-,N/A,Rain,Light Rain,0,2013-12-22 03:55:00
10:15 PM,37.4,-9999,N/A,29.67,6.0,Calm,Calm,-,N/A,Rain,Light Rain,0,2013-12-22 04:15:00
10:35 PM,37.4,-9999,N/A,29.67,10.0,Calm,Calm,-,N/A,,Overcast,0,2013-12-22 04:35:00
10:55 PM,37.4,-9999,N/A,29.66,10.0,Calm,Calm,-,N/A,,Overcast,0,2013-12-22 04:55:00
11:15 PM,37.4,-9999,N/A,29.67,10.0,Calm,Calm,-,N/A,,Mostly Cloudy,0,2013-12-22 05:15:00
11:35 PM,37.4,-9999,N/A,29.66,10.0,Calm,Calm,-,N/A,,Overcast,0,2013-12-22 05:35:00
11:55 PM,37.4,-9999,N/A,29.67,10.0,Calm,Calm,-,N/A,,Overcast,0,2013-12-22 05:55:00